Погода в Славгороде

Погода в Славгороде : погода сейчас, прогноз погоды и архив. Всё, что Вы хотите узнать о погоде в Славгороде!

Хотите узнать прогноз погоды в Славгороде? Тогда Вам сюда: Погода в Славгороде

Поиск расширенной информации на нашем сайте:

Другие новости

Новости СМИ2

Главная страница сайта

Новости сайта

03.07.2017

Напоминаем, что на нашем специализированном сайте Метеоцентр.Азия вы можете получить высокодетализированные автоматические прогнозы погоды по пунктам России, СНГ и мира в авиационном формате (включающие направление и скорость ветра, видимость, явления погоды, количество и форму облачности, нижнюю и верхнюю границу облачности).


Погода в Славгороде - сегодня

Время (UTC), дата Ветер
(°,м/с) 
Видим.   Явления Облачность Т
(°С)
Тd
(°С)
f(%) Тe
(°С)
Pmin
(гПа)
dP
(гПа)
Po
(мм)
O2
(г/м3)
Тmin Tmax R s Состояние
почвы
15 13.01.18 270 (З) 20000 м    ясно 
-29.7 -33.2 72 -33  1026.6  1.4  757  344           
18 13.01.18 290 (З) 20000 м    ясно 
-32.2 -36 69 -36  1028.5  1.6  758  348           
21 13.01.18 270 (З) 20000 м    ясно 
-34.4 -38.5 66 -41  1030.4  1.7  759  352           
00 14.01.18 250 (З) 20000 м    ясно 
-35.2 -39.5 65 -39  1032.2  1.7  760  354  -35.2      21  неравномерный
сухой снег
100% 
03 14.01.18 200 (Ю) 20000 м    ясно 
-34.4 -38.6 65 -39  1032.9  0.8  761  353  -36.4         
06 14.01.18 220 (ЮЗ) 20000 м    ясно 
-27.9 -31.5 71 -35  1032.1  -0.3  761  343           
09 14.01.18 210 (ЮЗ) 6{10}  20000 м  позёмок  ясно 
-22.9 -26.5 72 -31  1030.7  -1  760  336           
12 14.01.18 210 (ЮЗ) 6{10}  20000 м  позёмок  3/0 верхняя 
[Ci sp]
-22.3 -26 72 -30  1029.9  -0.8  759  335    -22.2       
15 14.01.18 240 (ЮЗ) 5{10}  20000 м  позёмок  6/6 630 м кучево-дожд. 
[Cb cap]
-19.6 -23.1 74 -26  1028.5  -1.2  758  331           
18 14.01.18 250 (З) 5{11}  20000 м  позёмок  8/0 средняя 
[Ac trans]
-20.8 -24.5 72 -27  1027.3  -1.2  758  332           
21 14.01.18 270 (З) 20000 м  позёмок  6/0 средняя, верхняя 
[Ac trans|Ci sp]
-21.5 -25.2 72 -28  1027.1  -0.3  757  333           
00 15.01.18 270 (З) 20000 м    10/10 600 м кучево-дожд. 
[Cb cap]
-21.1 -24.4 75 -27  1027  -0.1  757  332  -22.3      22  неравномерный
сухой снег
100% 
03 15.01.18 270 (З) 20000 м  слаб. ливневой снег  10/10 630 м кучево-дожд. 
[Cb cap]
-21.3 -24.8 73 -27  1027.6  0.6  758  333           
06 15.01.18 260 (З) 20000 м  слаб. ливневой снег  10/6 660 м кучево-дожд., верхняя 
[Cb cap|Ci sp]
-21.1 -25 71 -28  1027.7  0.2  758  333           
09 15.01.18 260 (З) 20000 м  позёмок{ливн. осадки}  10/0 средняя, верхняя 
[Ac trans|Ci sp]
-18.9 -22.5 73 -25  1027.6  758  330           
12 15.01.18 250 (З) 20000 м  {ливн. осадки}  9/0 верхняя 
[Ci sp]
-19.9 -23.4 74 -25  1028.1  0.4  758  331    -18.9  0.4     
15 15.01.18 240 (ЮЗ) 4{10}  20000 м  позёмок  10/10 750 м кучево-дожд. 
[Cb cap]
-19.4 -22.6 76 -25  1027  -1  757  330           
18 15.01.18 240 (ЮЗ) 5-10{10}  20000 м  позёмок  10/10 600 м кучево-дожд. 
[Cb cap]
-18.7 -22.1 74 -25  1025.7  -1.3  756  329           
21 15.01.18 230 (ЮЗ) 6-11{11}  10 км  слаб. ливневой снег  10/10 600 м кучево-дожд. 
[Cb cap]
-17.6 -20.5 78 -24  1024  -1.6  755  327           
00 16.01.18 240 (ЮЗ) 5{11}  4000 м  слаб. ливневой снег  10/10 600 м кучево-дожд. 
[Cb cap]
-16.1 -18.6 81 -22  1023.2  -0.5  755  325  -20.1    24  неравномерный
сухой снег
100% 
03 16.01.18 250 (З) 6-10{12}  4000 м  слаб. ливневой снег  10/10 630 м кучево-дожд. 
[Cb cap]
-14.9 -17.3 82 -21  1022.8  -0.5  754  323           
06 16.01.18 260 (З) 7-11{11}  4000 м  слаб. ливневой снег  10/10 700 м кучево-дожд. 
[Cb cap]
-13.1 -15.8 80 -20  1023.3  0.7  755  321           
09 16.01.18 260 (З) 6-11{11}  4000 м  слаб. ливневой снег  10/10 660 м кучево-дожд. 
[Cb cap]
-12.4 -14.9 82 -18  1022.9  -0.4  755  320           
12 16.01.18 260 (З) 6-11{12}  20000 м  слаб. ливневой снег  10/10 700 м кучево-дожд. 
[Cb cap]
-12.4 -14.8 82 -18  1023.8  0.9  755  320    -12.3     
15 16.01.18 250 (З) 6-11{12}  4000 м  слаб. ливневой снег  10/10 630 м кучево-дожд. 
[Cb cap]
-12.5 -14.6 84 -18  1023.3  -0.5  755  320           
Время (UTC), дата Ветер
(°,м/с) 
Видим.   Явления Облачность Т
(°С)
Тd
(°С)
f(%) Тe
(°С)
Pmin
(гПа)
dP
(гПа)
Po
(мм)
O2
(г/м3)
Тmin Tmax R s Состояние
почвы

Для получения пояснительной информации подведите курсор к названию столбца.

ПОГОДА в Славгороде - архив

Всё, что Вы хотите узнать о погоде в Славгороде - удобно и подробно!

Выберите нужную дату (начиная с 1 января 2015* года) и нажмите кнопку "Найти".
Будут отображены архивные сводки погоды по пункту Славгород, начиная с указанной даты.


Отображать данные в формате CSV (для использования в таблицах Excel)


Внимание! Наш архив погоды предназначен исключительно для личного некоммерческого использования в познавательных целях. Если Вам необходимы официальные справки о состоянии погоды (для производственных, юридических, коммерческих и т.п. целей), обращайтесь в органы Росгидромета.

*Примечание: данная дата относится к архиву по метеостанциям СССР (Россия, СНГ, Балтия).
Архив по метеостанциям Зарубежной Европы и Азии (кроме Китая) хранится 10 дней, по другим регионам земного шара (Китай, Африка, Америка, Австралия, Океания) - 1 день.

Славгород - район местоположения метеостанции


Название, широта, долгота, высота метеостанции:
Славгород 53°ш. 78.6°д. 126 м над ур. моря [Российская Федерация]

Дополнительная информация

В oтличие oт бoльшинства пoгoдных сайтoв мы публикуем пoдрoбную метеoинфoрмацию в детальнoм прoфессиoнальнoм фoрмате.

Характеристики температуры и влажнoсти вoздуха измеряются на высoте 2 м в тени вдали oт зданий и деревьев.
Скoрoсть ветра измеряется на высoте 10 м (на урoвне рoста челoвека скoрoсть ветра ниже в 1.5-2 раза). Если метеoстанция нахoдится в гoрoде или в лесу, тo скoрoсть ветра занижена на 2-4 м/с пo сравнению с oткрытым местoм. Скoрoсть ветра над акватoриями крупных рек и oзёр, а также на вершинах хoлмoв на 2-5 м/с выше, чем в oбычных услoвиях.
Атмoсфернoе давление в разных тoчках местнoсти мoжет значительнo oтличаться oт давления на метеoстанции, в зависимoсти oт услoвий рельефа (при пoдъёме на 10 м давление пoнижается примернo на 1 мм рт.ст.).